DLH29P EDDK-LOWW

Flight info

Callsign DLH29P
Flight time 1h 31m
Altitude 35000
Route KUMIK1R KUMIK L603 TESGA DCT ESATI DCT BARSU DCT EKSOS DCT LULAR DCT RUDAP DCT BUDEX BUDEX2W
Aircraft A320/M-SDE3FGHIRWY/LB1

Departure

Time 2026-05-06 19:08
Airport Cologne Bonn Airport (EDDK)

Arrival

Time 2026-05-06 20:39
Airport Vienna International Airport (LOWW)
Time Latitude Longitude Altitude Speed Heading
2026-05-06 18:19 50.87697 7.12382 235 ft 0 kts 288°
2026-05-06 18:43 50.87694 7.12396 233 ft 4 kts 288°
2026-05-06 18:44 50.87685 7.12436 235 ft 4 kts 295°
2026-05-06 18:44 50.87671 7.12472 234 ft 4 kts 317°
2026-05-06 18:44 50.87651 7.12489 232 ft 4 kts
2026-05-06 18:44 50.87641 7.12486 235 ft 0 kts 18°
2026-05-06 18:52 50.87646 7.12488 232 ft 3 kts 18°
2026-05-06 18:52 50.87663 7.12497 234 ft 5 kts 18°
2026-05-06 18:53 50.87708 7.12520 232 ft 6 kts 18°
2026-05-06 18:53 50.87742 7.12549 232 ft 5 kts 40°
2026-05-06 18:53 50.87768 7.12635 232 ft 10 kts 81°
2026-05-06 18:53 50.87747 7.12729 233 ft 9 kts 132°
2026-05-06 18:54 50.87700 7.12798 232 ft 10 kts 137°
2026-05-06 18:54 50.87640 7.12885 232 ft 14 kts 137°
2026-05-06 18:54 50.87561 7.12999 232 ft 15 kts 137°
2026-05-06 18:54 50.87489 7.13104 232 ft 13 kts 137°
2026-05-06 18:55 50.87438 7.13178 232 ft 7 kts 137°
2026-05-06 18:55 50.87408 7.13222 232 ft 5 kts 137°
2026-05-06 18:55 50.87363 7.13311 233 ft 16 kts 111°
2026-05-06 18:55 50.87323 7.13487 233 ft 18 kts 125°
2026-05-06 18:56 50.87231 7.13633 237 ft 14 kts 137°
2026-05-06 18:56 50.87149 7.13751 240 ft 16 kts 137°
2026-05-06 18:56 50.87060 7.13880 243 ft 15 kts 137°
2026-05-06 18:56 50.87007 7.13956 247 ft 9 kts 138°
2026-05-06 18:57 50.86984 7.13989 249 ft 4 kts 139°
2026-05-06 18:57 50.86924 7.14016 253 ft 9 kts 180°
2026-05-06 18:57 50.86874 7.14018 255 ft 9 kts 167°
2026-05-06 18:57 50.86824 7.14068 255 ft 7 kts 140°
2026-05-06 18:58 50.86782 7.14119 255 ft 6 kts 153°
2026-05-06 18:58 50.86746 7.14135 255 ft 5 kts 161°
2026-05-06 18:58 50.86734 7.14145 256 ft 0 kts 150°
2026-05-06 18:59 50.86723 7.14155 257 ft 6 kts 147°
2026-05-06 18:59 50.86676 7.14220 260 ft 7 kts 137°
2026-05-06 18:59 50.86624 7.14295 261 ft 19 kts 138°
2026-05-06 19:00 50.86511 7.14460 265 ft 16 kts 137°
2026-05-06 19:00 50.86441 7.14564 270 ft 11 kts 137°
2026-05-06 19:00 50.86360 7.14681 274 ft 18 kts 138°
2026-05-06 19:00 50.86305 7.14760 278 ft 15 kts 138°
2026-05-06 19:01 50.86171 7.14952 285 ft 21 kts 137°
2026-05-06 19:01 50.86067 7.15105 289 ft 19 kts 137°
2026-05-06 19:01 50.85965 7.15253 295 ft 20 kts 138°
2026-05-06 19:01 50.85851 7.15416 298 ft 26 kts 137°
2026-05-06 19:02 50.85720 7.15608 300 ft 25 kts 138°
2026-05-06 19:02 50.85589 7.15795 305 ft 25 kts 137°
2026-05-06 19:02 50.85463 7.15979 309 ft 24 kts 137°
2026-05-06 19:02 50.85386 7.16093 311 ft 22 kts 136°
2026-05-06 19:03 50.85334 7.16272 308 ft 17 kts 91°
2026-05-06 19:03 50.85369 7.16425 308 ft 13 kts 51°
2026-05-06 19:03 50.85417 7.16487 307 ft 0 kts 28°
2026-05-06 19:05 50.85427 7.16495 308 ft 9 kts 26°
2026-05-06 19:06 50.85519 7.16513 309 ft 15 kts 352°
2026-05-06 19:06 50.85613 7.16436 308 ft 14 kts 317°
2026-05-06 19:06 50.85625 7.16418 309 ft 0 kts 317°
2026-05-06 19:07 50.85627 7.16415 308 ft 3 kts 317°
2026-05-06 19:07 50.85791 7.16176 308 ft 70 kts 317°
2026-05-06 19:07 50.86315 7.15414 287 ft 132 kts 317°
2026-05-06 19:08 50.87115 7.14277 425 ft 166 kts 320°
2026-05-06 19:08 50.87979 7.13083 1224 ft 164 kts 319°
2026-05-06 19:08 50.88849 7.11850 1842 ft 177 kts 323°
2026-05-06 19:08 50.90032 7.11237 2164 ft 196 kts
2026-05-06 19:09 50.91340 7.12058 2788 ft 206 kts 26°
2026-05-06 19:09 50.92629 7.13079 3658 ft 209 kts 26°
2026-05-06 19:09 50.93732 7.14623 4376 ft 223 kts 54°
2026-05-06 19:09 50.94450 7.16956 4841 ft 247 kts 63°
2026-05-06 19:10 50.95228 7.19503 5415 ft 264 kts 61°
2026-05-06 19:10 50.96071 7.22134 6269 ft 271 kts 61°
2026-05-06 19:10 50.96932 7.24815 7147 ft 274 kts 61°
2026-05-06 19:10 50.97794 7.27507 8109 ft 275 kts 61°
2026-05-06 19:11 50.98659 7.30228 9040 ft 277 kts 60°
2026-05-06 19:11 50.99529 7.32973 9948 ft 280 kts 60°
2026-05-06 19:11 51.00373 7.35864 10386 ft 301 kts 66°
2026-05-06 19:11 51.00982 7.39192 10660 ft 327 kts 76°
2026-05-06 19:12 51.01244 7.42912 10871 ft 353 kts 86°
2026-05-06 19:12 51.01063 7.46933 11031 ft 378 kts 98°
2026-05-06 19:12 51.00361 7.51032 11478 ft 390 kts 106°
2026-05-06 19:12 50.99530 7.55165 12126 ft 395 kts 106°
2026-05-06 19:13 50.98704 7.59355 12762 ft 401 kts 108°
2026-05-06 19:13 50.97874 7.63609 13369 ft 406 kts 108°
2026-05-06 19:13 50.97035 7.67908 13959 ft 410 kts 108°
2026-05-06 19:13 50.96182 7.72246 14511 ft 414 kts 108°
2026-05-06 19:14 50.95316 7.76622 15066 ft 417 kts 108°
2026-05-06 19:14 50.94353 7.80982 15611 ft 420 kts 114°
2026-05-06 19:14 50.92978 7.85080 16133 ft 423 kts 124°
2026-05-06 19:14 50.91356 7.88981 16666 ft 426 kts 124°
2026-05-06 19:15 50.89710 7.92911 17183 ft 429 kts 124°
2026-05-06 19:15 50.88053 7.96864 17703 ft 433 kts 124°
2026-05-06 19:15 50.86381 8.00844 18201 ft 436 kts 125°
2026-05-06 19:15 50.84695 8.04856 18633 ft 439 kts 126°
2026-05-06 19:16 50.82998 8.08893 18964 ft 441 kts 126°
2026-05-06 19:16 50.81295 8.12939 19428 ft 443 kts 126°
2026-05-06 19:16 50.79580 8.17008 19875 ft 445 kts 126°
2026-05-06 19:16 50.77858 8.21091 20317 ft 448 kts 126°
2026-05-06 19:17 50.76150 8.25135 20721 ft 450 kts 126°
2026-05-06 19:17 50.74399 8.29260 21149 ft 452 kts 126°
2026-05-06 19:17 50.72645 8.33388 21563 ft 454 kts 126°
2026-05-06 19:17 50.70754 8.37379 21969 ft 455 kts 133°
2026-05-06 19:18 50.68501 8.40874 22358 ft 454 kts 142°
2026-05-06 19:18 50.65936 8.43779 22732 ft 454 kts 151°
2026-05-06 19:18 50.63169 8.46170 23125 ft 454 kts 154°
2026-05-06 19:18 50.60382 8.48517 23488 ft 456 kts 154°
2026-05-06 19:19 50.57575 8.50880 23791 ft 458 kts 154°
2026-05-06 19:19 50.54758 8.53253 24094 ft 460 kts 154°
2026-05-06 19:19 50.51933 8.55631 24395 ft 462 kts 154°
2026-05-06 19:19 50.49096 8.58014 24696 ft 463 kts 153°
2026-05-06 19:20 50.46270 8.60435 24996 ft 465 kts 150°
2026-05-06 19:20 50.43621 8.63356 25302 ft 468 kts 142°
2026-05-06 19:20 50.41220 8.66831 25615 ft 469 kts 137°
2026-05-06 19:20 50.38884 8.70372 26052 ft 467 kts 138°
2026-05-06 19:21 50.36550 8.73892 26502 ft 464 kts 138°
2026-05-06 19:21 50.34223 8.77388 26967 ft 462 kts 138°
2026-05-06 19:21 50.31906 8.80865 27435 ft 459 kts 138°
2026-05-06 19:21 50.29634 8.84269 27928 ft 456 kts 137°
2026-05-06 19:22 50.27353 8.87682 28470 ft 452 kts 137°
2026-05-06 19:22 50.25087 8.91072 28973 ft 449 kts 137°
2026-05-06 19:22 50.22834 8.94436 29451 ft 447 kts 138°
2026-05-06 19:22 50.20591 8.97786 29921 ft 445 kts 138°
2026-05-06 19:23 50.18357 9.01118 30309 ft 444 kts 138°
2026-05-06 19:23 50.16128 9.04443 30654 ft 443 kts 138°
2026-05-06 19:23 50.13897 9.07761 30991 ft 443 kts 138°
2026-05-06 19:23 50.11667 9.11064 31320 ft 442 kts 139°
2026-05-06 19:24 50.09502 9.14479 31644 ft 444 kts 133°
2026-05-06 19:24 50.07677 9.18377 31790 ft 448 kts 124°
2026-05-06 19:24 50.06289 9.22743 32011 ft 453 kts 115°
2026-05-06 19:24 50.05373 9.27435 32366 ft 457 kts 106°
2026-05-06 19:25 50.04807 9.32306 32698 ft 458 kts 104°
2026-05-06 19:25 50.04257 9.37188 33014 ft 458 kts 104°
2026-05-06 19:25 50.03701 9.42067 33352 ft 457 kts 104°
2026-05-06 19:25 50.03141 9.46935 33733 ft 456 kts 105°
2026-05-06 19:26 50.02579 9.51786 34014 ft 456 kts 105°
2026-05-06 19:26 50.02016 9.56626 34246 ft 456 kts 105°
2026-05-06 19:26 50.01450 9.61498 34484 ft 457 kts 105°
2026-05-06 19:26 50.00881 9.66378 34703 ft 459 kts 105°
2026-05-06 19:27 50.00309 9.71262 34894 ft 460 kts 105°
2026-05-06 19:27 49.99734 9.76156 35118 ft 461 kts 105°
2026-05-06 19:27 49.99155 9.81060 35343 ft 462 kts 105°
2026-05-06 19:27 49.98574 9.85968 35577 ft 462 kts 104°
2026-05-06 19:28 49.97993 9.90879 35811 ft 462 kts 104°
2026-05-06 19:28 49.97412 9.95783 36033 ft 463 kts 104°
2026-05-06 19:28 49.96826 10.00702 36246 ft 463 kts 104°
2026-05-06 19:28 49.96236 10.05623 36442 ft 463 kts 104°
2026-05-06 19:29 49.95641 10.10552 36609 ft 465 kts 104°
2026-05-06 19:29 49.95040 10.15481 36769 ft 467 kts 104°
2026-05-06 19:29 49.94433 10.20446 36812 ft 470 kts 104°
2026-05-06 19:30 49.93210 10.30434 36808 ft 471 kts 104°
2026-05-06 19:30 49.91804 10.40263 36811 ft 467 kts 113°
2026-05-06 19:31 49.89430 10.49599 36791 ft 465 kts 116°
2026-05-06 19:31 49.85807 10.63569 36811 ft 466 kts 116°
2026-05-06 19:32 49.83381 10.72885 36806 ft 466 kts 116°
2026-05-06 19:32 49.80945 10.82204 36823 ft 466 kts 116°
2026-05-06 19:33 49.78506 10.91514 36798 ft 466 kts 116°
2026-05-06 19:33 49.76065 11.00797 36817 ft 466 kts 116°
2026-05-06 19:34 49.73609 11.10076 36823 ft 466 kts 117°
2026-05-06 19:34 49.71145 11.19347 36834 ft 466 kts 117°
2026-05-06 19:35 49.68689 11.28539 36824 ft 466 kts 117°
2026-05-06 19:35 49.66211 11.37772 36808 ft 465 kts 117°
2026-05-06 19:36 49.63900 11.47118 36804 ft 468 kts 113°
2026-05-06 19:36 49.61976 11.56695 36807 ft 463 kts 111°
2026-05-06 19:37 49.60138 11.66166 36800 ft 460 kts 112°
2026-05-06 19:37 49.58545 11.73973 36800 ft 459 kts 112°
2026-05-06 19:38 49.56235 11.84907 36793 ft 458 kts 113°
2026-05-06 19:38 49.54247 11.94208 36798 ft 456 kts 113°
2026-05-06 19:39 49.52268 12.03474 36803 ft 456 kts 113°
2026-05-06 19:39 49.50294 12.12743 36804 ft 456 kts 113°
2026-05-06 19:40 49.48312 12.22008 36789 ft 456 kts 113°
2026-05-06 19:40 49.46322 12.31248 36788 ft 456 kts 113°
2026-05-06 19:41 49.44329 12.40462 36401 ft 459 kts 113°
2026-05-06 19:41 49.43324 12.45086 36137 ft 456 kts 114°
2026-05-06 19:41 49.42321 12.49709 35883 ft 456 kts 114°
2026-05-06 19:42 49.41316 12.54328 35621 ft 456 kts 114°
2026-05-06 19:42 49.40308 12.58943 35355 ft 456 kts 114°
2026-05-06 19:42 49.39299 12.63555 35114 ft 456 kts 115°
2026-05-06 19:42 49.38284 12.68166 34875 ft 456 kts 115°
2026-05-06 19:43 49.37267 12.72780 34752 ft 456 kts 115°
2026-05-06 19:43 49.36252 12.77381 34779 ft 456 kts 115°
2026-05-06 19:43 49.34084 12.86512 34784 ft 455 kts 117°
2026-05-06 19:44 49.31809 12.95546 34779 ft 454 kts 117°
2026-05-06 19:44 49.29544 13.04597 34781 ft 455 kts 117°
2026-05-06 19:45 49.27314 13.13666 34782 ft 455 kts 117°
2026-05-06 19:45 49.25079 13.22706 34780 ft 454 kts 117°
2026-05-06 19:46 49.22798 13.31723 34778 ft 454 kts 118°
2026-05-06 19:46 49.20393 13.40638 34749 ft 453 kts 119°
2026-05-06 19:47 49.17962 13.49489 34779 ft 455 kts 119°
2026-05-06 19:47 49.15531 13.58416 34779 ft 455 kts 119°
2026-05-06 19:48 49.13130 13.67293 34776 ft 450 kts 119°
2026-05-06 19:48 49.10746 13.76088 34774 ft 442 kts 119°
2026-05-06 19:49 49.08436 13.84580 34628 ft 430 kts 120°
2026-05-06 19:49 49.07284 13.88768 34379 ft 428 kts 120°
2026-05-06 19:49 49.06127 13.92949 34137 ft 428 kts 121°
2026-05-06 19:50 49.04967 13.97129 33908 ft 428 kts 121°
2026-05-06 19:50 49.03809 14.01301 33663 ft 428 kts 121°
2026-05-06 19:50 49.02649 14.05485 33371 ft 428 kts 121°
2026-05-06 19:50 49.01490 14.09662 33092 ft 429 kts 120°
2026-05-06 19:51 49.00329 14.13851 32826 ft 430 kts 120°
2026-05-06 19:51 48.99165 14.18044 32557 ft 430 kts 120°
2026-05-06 19:51 48.98013 14.22198 32225 ft 421 kts 120°
2026-05-06 19:51 48.96888 14.26262 31963 ft 412 kts 120°
2026-05-06 19:52 48.95790 14.30227 31702 ft 403 kts 121°
2026-05-06 19:52 48.94535 14.33936 31451 ft 386 kts 130°
2026-05-06 19:52 48.93562 14.36162 31279 ft 376 kts 135°
2026-05-06 19:52 48.91989 14.39281 30960 ft 369 kts 136°
2026-05-06 19:53 48.90430 14.42350 30559 ft 366 kts 136°
2026-05-06 19:53 48.88884 14.45401 30159 ft 362 kts 135°
2026-05-06 19:53 48.87363 14.48417 29765 ft 358 kts 135°
2026-05-06 19:53 48.85855 14.51411 29263 ft 355 kts 135°
2026-05-06 19:54 48.84356 14.54386 28796 ft 353 kts 135°
2026-05-06 19:54 48.82867 14.57324 28351 ft 350 kts 136°
2026-05-06 19:54 48.81390 14.60227 27944 ft 347 kts 136°
2026-05-06 19:54 48.79917 14.63118 27541 ft 344 kts 136°
2026-05-06 19:55 48.78460 14.65976 27152 ft 342 kts 136°
2026-05-06 19:55 48.77013 14.68818 26752 ft 339 kts 136°
2026-05-06 19:55 48.75579 14.71633 26375 ft 336 kts 136°
2026-05-06 19:55 48.74156 14.74423 25996 ft 333 kts 136°
2026-05-06 19:56 48.72744 14.77192 25616 ft 331 kts 136°
2026-05-06 19:56 48.71340 14.79939 25253 ft 329 kts 136°
2026-05-06 19:56 48.69943 14.82666 24894 ft 327 kts 136°
2026-05-06 19:56 48.68553 14.85374 24526 ft 324 kts 136°
2026-05-06 19:57 48.67178 14.88047 24168 ft 319 kts 136°
2026-05-06 19:57 48.65834 14.90668 23817 ft 312 kts 136°
2026-05-06 19:57 48.64517 14.93230 23449 ft 308 kts 136°
2026-05-06 19:57 48.63203 14.95782 23062 ft 307 kts 136°
2026-05-06 19:58 48.61893 14.98325 22656 ft 306 kts 136°
2026-05-06 19:58 48.60642 15.00948 22292 ft 308 kts 130°
2026-05-06 19:58 48.59554 15.03746 21945 ft 310 kts 125°
2026-05-06 19:58 48.58645 15.06715 21610 ft 313 kts 119°
2026-05-06 19:59 48.57929 15.09824 21266 ft 315 kts 113°
2026-05-06 19:59 48.57374 15.13027 20929 ft 315 kts 111°
2026-05-06 19:59 48.56831 15.16219 20593 ft 313 kts 111°
2026-05-06 19:59 48.56283 15.19402 20198 ft 314 kts 111°
2026-05-06 20:00 48.55739 15.22535 19780 ft 311 kts 112°
2026-05-06 20:00 48.55190 15.25679 19354 ft 309 kts 112°
2026-05-06 20:00 48.54646 15.28807 18942 ft 307 kts 111°
2026-05-06 20:00 48.54106 15.31905 18520 ft 305 kts 111°
2026-05-06 20:01 48.53569 15.34988 18122 ft 303 kts 110°
2026-05-06 20:01 48.53035 15.38051 17677 ft 301 kts 110°
2026-05-06 20:01 48.52502 15.41099 17219 ft 300 kts 110°
2026-05-06 20:01 48.52053 15.44173 16821 ft 299 kts 104°
2026-05-06 20:02 48.51824 15.47251 16685 ft 294 kts 99°
2026-05-06 20:02 48.51662 15.50314 16556 ft 292 kts 99°
2026-05-06 20:02 48.51494 15.53355 16427 ft 291 kts 99°
2026-05-06 20:02 48.51323 15.56392 16311 ft 290 kts 99°
2026-05-06 20:03 48.51149 15.59419 16166 ft 289 kts 99°
2026-05-06 20:03 48.50976 15.62439 16039 ft 289 kts 99°
2026-05-06 20:03 48.50804 15.65455 15912 ft 288 kts 99°
2026-05-06 20:03 48.50631 15.68453 15782 ft 287 kts 99°
2026-05-06 20:04 48.50457 15.71432 15753 ft 284 kts 99°
2026-05-06 20:04 48.50282 15.74396 15741 ft 284 kts 99°
2026-05-06 20:04 48.50107 15.77358 15749 ft 283 kts 99°
2026-05-06 20:04 48.49937 15.80272 15752 ft 283 kts 99°
2026-05-06 20:05 48.49764 15.83222 15755 ft 282 kts 100°
2026-05-06 20:05 48.49586 15.86209 15756 ft 283 kts 100°
2026-05-06 20:05 48.49412 15.89120 15756 ft 283 kts 100°
2026-05-06 20:05 48.49235 15.92073 15754 ft 283 kts 100°
2026-05-06 20:06 48.49057 15.95026 15754 ft 283 kts 100°
2026-05-06 20:06 48.48878 15.97980 15756 ft 283 kts 100°
2026-05-06 20:06 48.48698 16.00929 15756 ft 283 kts 100°
2026-05-06 20:06 48.48515 16.03879 15754 ft 283 kts 100°
2026-05-06 20:07 48.48333 16.06830 15752 ft 283 kts 100°
2026-05-06 20:07 48.48148 16.09783 15755 ft 282 kts 102°
2026-05-06 20:07 48.47599 16.12546 15754 ft 272 kts 126°
2026-05-06 20:07 48.46406 16.14652 15756 ft 260 kts 149°
2026-05-06 20:08 48.44831 16.15859 15754 ft 252 kts 170°
2026-05-06 20:08 48.43123 16.16091 15753 ft 244 kts 190°
2026-05-06 20:08 48.41511 16.15397 15756 ft 241 kts 209°
2026-05-06 20:08 48.40178 16.13900 15758 ft 241 kts 227°
2026-05-06 20:09 48.39273 16.11780 15767 ft 244 kts 246°
2026-05-06 20:09 48.38931 16.09263 15756 ft 251 kts 266°
2026-05-06 20:09 48.39201 16.06639 15762 ft 258 kts 280°
2026-05-06 20:09 48.39719 16.04043 15762 ft 260 kts 283°
2026-05-06 20:10 48.40298 16.01462 15761 ft 260 kts 284°
2026-05-06 20:10 48.40894 15.98894 15757 ft 260 kts 284°
2026-05-06 20:10 48.41487 15.96327 15756 ft 260 kts 283°
2026-05-06 20:10 48.42094 15.93765 15754 ft 261 kts 289°
2026-05-06 20:11 48.43139 15.91474 15597 ft 275 kts 312°
2026-05-06 20:11 48.44786 15.89942 15263 ft 286 kts 338°
2026-05-06 20:11 48.46748 15.89588 14905 ft 293 kts
2026-05-06 20:11 48.48676 15.90560 14528 ft 295 kts 33°
2026-05-06 20:12 48.50129 15.92682 14167 ft 291 kts 60°
2026-05-06 20:12 48.50830 15.95477 13809 ft 283 kts 87°
2026-05-06 20:12 48.50706 15.98372 13447 ft 274 kts 109°
2026-05-06 20:12 48.50167 16.01117 13052 ft 272 kts 112°
2026-05-06 20:13 48.49569 16.03818 12659 ft 271 kts 113°
2026-05-06 20:13 48.48957 16.06489 12273 ft 270 kts 113°
2026-05-06 20:13 48.48346 16.09156 11892 ft 268 kts 113°
2026-05-06 20:13 48.47568 16.11620 11750 ft 253 kts 133°
2026-05-06 20:14 48.46286 16.13346 11756 ft 245 kts 156°
2026-05-06 20:14 48.44700 16.14138 11759 ft 238 kts 178°
2026-05-06 20:14 48.43074 16.13927 11756 ft 234 kts 200°
2026-05-06 20:14 48.41652 16.12792 11758 ft 233 kts 220°
2026-05-06 20:15 48.40612 16.10921 11574 ft 238 kts 241°
2026-05-06 20:15 48.40140 16.08558 11200 ft 238 kts 263°
2026-05-06 20:15 48.40311 16.06078 10824 ft 240 kts 281°
2026-05-06 20:15 48.40780 16.03698 10467 ft 240 kts 284°
2026-05-06 20:16 48.41313 16.01319 10106 ft 239 kts 285°
2026-05-06 20:16 48.41859 15.98955 9747 ft 238 kts 285°
2026-05-06 20:16 48.42400 15.96600 9371 ft 239 kts 284°
2026-05-06 20:16 48.43021 15.94272 8976 ft 242 kts 296°
2026-05-06 20:17 48.44136 15.92359 8591 ft 248 kts 320°
2026-05-06 20:17 48.45704 15.91247 8214 ft 255 kts 344°
2026-05-06 20:17 48.47489 15.91214 7836 ft 262 kts 11°
2026-05-06 20:17 48.49187 15.92246 7452 ft 265 kts 25°
2026-05-06 20:18 48.50682 15.93853 7081 ft 267 kts 49°
2026-05-06 20:18 48.51578 15.96274 6720 ft 266 kts 76°
2026-05-06 20:18 48.51705 15.99010 6382 ft 260 kts 103°
2026-05-06 20:18 48.51092 16.01496 6147 ft 249 kts 127°
2026-05-06 20:19 48.49944 16.03312 5989 ft 234 kts 151°
2026-05-06 20:19 48.48568 16.04587 5980 ft 232 kts 153°
2026-05-06 20:19 48.47189 16.05860 5981 ft 233 kts 153°
2026-05-06 20:19 48.45808 16.07143 5979 ft 233 kts 153°
2026-05-06 20:20 48.44428 16.08428 5983 ft 233 kts 153°
2026-05-06 20:20 48.43047 16.09708 5981 ft 232 kts 153°
2026-05-06 20:20 48.41705 16.10954 5982 ft 224 kts 153°
2026-05-06 20:20 48.40383 16.12178 5981 ft 223 kts 153°
2026-05-06 20:21 48.39060 16.13400 5966 ft 223 kts 153°
2026-05-06 20:21 48.37726 16.14629 5983 ft 226 kts 153°
2026-05-06 20:21 48.36381 16.15866 5986 ft 227 kts 153°
2026-05-06 20:21 48.35037 16.17106 5986 ft 227 kts 153°
2026-05-06 20:22 48.33696 16.18363 5984 ft 228 kts 148°
2026-05-06 20:22 48.32567 16.20018 5992 ft 233 kts 130°
2026-05-06 20:22 48.31771 16.22152 5991 ft 236 kts 113°
2026-05-06 20:22 48.31387 16.24559 5990 ft 239 kts 96°
2026-05-06 20:23 48.31467 16.27053 5997 ft 240 kts 78°
2026-05-06 20:23 48.32017 16.29402 5993 ft 239 kts 60°
2026-05-06 20:23 48.32992 16.31398 5997 ft 236 kts 42°
2026-05-06 20:23 48.34293 16.32871 5994 ft 233 kts 24°
2026-05-06 20:24 48.35793 16.33713 5994 ft 229 kts
2026-05-06 20:24 48.37365 16.33889 5991 ft 225 kts 351°
2026-05-06 20:24 48.38897 16.33516 5990 ft 223 kts 342°
2026-05-06 20:24 48.40398 16.32947 5987 ft 222 kts 340°
2026-05-06 20:25 48.41893 16.32345 5990 ft 223 kts 341°
2026-05-06 20:25 48.43389 16.31728 5987 ft 223 kts 340°
2026-05-06 20:25 48.44883 16.31118 5982 ft 223 kts 341°
2026-05-06 20:25 48.46383 16.30502 5981 ft 223 kts 340°
2026-05-06 20:26 48.47885 16.29889 5981 ft 223 kts 341°
2026-05-06 20:26 48.49382 16.29274 5981 ft 223 kts 340°
2026-05-06 20:26 48.50923 16.28977 5974 ft 228 kts
2026-05-06 20:26 48.52432 16.29775 5989 ft 233 kts 23°
2026-05-06 20:27 48.53845 16.30878 5991 ft 221 kts 25°
2026-05-06 20:27 48.55165 16.31956 5992 ft 213 kts 26°
2026-05-06 20:27 48.56276 16.33419 5969 ft 215 kts 58°
2026-05-06 20:27 48.56667 16.35582 5807 ft 216 kts 94°
2026-05-06 20:28 48.56199 16.37656 5511 ft 207 kts 128°
2026-05-06 20:28 48.55316 16.39365 5217 ft 206 kts 134°
2026-05-06 20:28 48.54384 16.40986 5002 ft 203 kts 135°
2026-05-06 20:28 48.53347 16.42396 4963 ft 198 kts 159°
2026-05-06 20:29 48.52046 16.42974 4984 ft 194 kts 173°
2026-05-06 20:29 48.50721 16.43323 4984 ft 193 kts 175°
2026-05-06 20:29 48.49409 16.43647 4984 ft 193 kts 176°
2026-05-06 20:29 48.48064 16.43988 4984 ft 193 kts 175°
2026-05-06 20:30 48.46754 16.44321 4987 ft 194 kts 175°
2026-05-06 20:30 48.44100 16.44986 4993 ft 193 kts 175°
2026-05-06 20:30 48.42775 16.45221 4992 ft 190 kts 184°
2026-05-06 20:31 48.41451 16.45413 4995 ft 193 kts 175°
2026-05-06 20:31 48.40137 16.45860 4997 ft 194 kts 171°
2026-05-06 20:31 48.38834 16.46390 4999 ft 194 kts 169°
2026-05-06 20:31 48.37530 16.46942 5002 ft 195 kts 169°
2026-05-06 20:32 48.36229 16.47498 5004 ft 195 kts 169°
2026-05-06 20:32 48.34924 16.48055 5007 ft 196 kts 169°
2026-05-06 20:32 48.33607 16.48617 4894 ft 197 kts 169°
2026-05-06 20:32 48.32300 16.49176 4681 ft 194 kts 170°
2026-05-06 20:33 48.31023 16.49723 4446 ft 188 kts 170°
2026-05-06 20:33 48.29787 16.50250 4203 ft 182 kts 170°
2026-05-06 20:33 48.28587 16.50763 3977 ft 175 kts 171°
2026-05-06 20:33 48.27465 16.51244 3736 ft 160 kts 172°
2026-05-06 20:34 48.26451 16.51679 3545 ft 142 kts 173°
2026-05-06 20:34 48.25543 16.52065 3363 ft 131 kts 174°
2026-05-06 20:34 48.24683 16.52429 3191 ft 127 kts 174°
2026-05-06 20:34 48.23841 16.52785 3033 ft 125 kts 175°
2026-05-06 20:35 48.23021 16.53133 2866 ft 120 kts 175°
2026-05-06 20:35 48.22229 16.53470 2711 ft 117 kts 175°
2026-05-06 20:35 48.21455 16.53798 2553 ft 114 kts 175°
2026-05-06 20:35 48.20694 16.54121 2418 ft 113 kts 175°
2026-05-06 20:36 48.19944 16.54439 2266 ft 111 kts 174°
2026-05-06 20:36 48.19201 16.54754 2118 ft 111 kts 174°
2026-05-06 20:36 48.18462 16.55067 1971 ft 111 kts 173°
2026-05-06 20:36 48.17695 16.55391 1818 ft 117 kts 172°
2026-05-06 20:37 48.16908 16.55725 1665 ft 118 kts 171°
2026-05-06 20:37 48.16117 16.56061 1500 ft 119 kts 169°
2026-05-06 20:37 48.15311 16.56403 1341 ft 121 kts 167°
2026-05-06 20:37 48.14492 16.56750 1179 ft 122 kts 167°
2026-05-06 20:38 48.13691 16.57090 1013 ft 123 kts 165°
2026-05-06 20:38 48.12861 16.57446 833 ft 125 kts 164°
2026-05-06 20:38 48.12025 16.57810 683 ft 125 kts 166°
2026-05-06 20:38 48.11229 16.58134 615 ft 101 kts 164°
2026-05-06 20:39 48.10669 16.58368 611 ft 71 kts 164°
2026-05-06 20:39 48.10260 16.58544 621 ft 53 kts 165°
2026-05-06 20:39 48.09982 16.58621 618 ft 29 kts 180°
2026-05-06 20:39 48.09825 16.58595 615 ft 20 kts 189°
2026-05-06 20:40 48.09737 16.58572 610 ft 10 kts 190°
2026-05-06 20:40 48.09669 16.58544 610 ft 10 kts 210°
2026-05-06 20:40 48.09638 16.58451 615 ft 11 kts 272°
2026-05-06 20:40 48.09683 16.58372 615 ft 10 kts 336°
2026-05-06 20:41 48.09748 16.58344 614 ft 10 kts 344°
2026-05-06 20:41 48.09809 16.58318 613 ft 9 kts 344°
2026-05-06 20:41 48.09868 16.58292 613 ft 9 kts 343°
2026-05-06 20:41 48.09965 16.58249 614 ft 17 kts 343°
2026-05-06 20:42 48.10072 16.58202 617 ft 15 kts 343°
2026-05-06 20:42 48.10138 16.58175 618 ft 15 kts 345°
2026-05-06 20:42 48.10237 16.58136 622 ft 15 kts 344°
2026-05-06 20:42 48.10339 16.58092 620 ft 16 kts 344°
2026-05-06 20:43 48.10473 16.58037 619 ft 21 kts 345°
2026-05-06 20:43 48.10608 16.57981 616 ft 19 kts 344°
2026-05-06 20:43 48.10733 16.57926 611 ft 18 kts 343°
2026-05-06 20:43 48.10852 16.57874 616 ft 17 kts 344°
2026-05-06 20:44 48.10963 16.57828 611 ft 16 kts 345°
2026-05-06 20:44 48.11067 16.57785 616 ft 15 kts 345°
2026-05-06 20:44 48.11163 16.57745 619 ft 14 kts 344°
2026-05-06 20:44 48.11258 16.57706 618 ft 15 kts 345°
2026-05-06 20:45 48.11359 16.57664 618 ft 16 kts 344°
2026-05-06 20:45 48.11463 16.57619 624 ft 15 kts 344°
2026-05-06 20:45 48.11559 16.57578 615 ft 14 kts 343°
2026-05-06 20:45 48.11664 16.57535 621 ft 18 kts 345°
2026-05-06 20:46 48.11763 16.57489 614 ft 13 kts 343°
2026-05-06 20:46 48.11806 16.57408 617 ft 10 kts 271°
2026-05-06 20:46 48.11828 16.57297 616 ft 16 kts 295°
2026-05-06 20:46 48.11858 16.57142 611 ft 15 kts 284°
2026-05-06 20:47 48.11897 16.57009 621 ft 13 kts 296°
2026-05-06 20:47 48.11936 16.56891 620 ft 12 kts 296°
2026-05-06 20:47 48.11946 16.56810 615 ft 6 kts 239°
2026-05-06 20:47 48.11913 16.56779 627 ft 4 kts 207°
2026-05-06 20:48 48.11896 16.56766 614 ft 0 kts 207°